Weather Roundup
Issued by NWS Chicago, IL

Home | Current Version | Previous Version | Text Only | Print | Product List | Glossary On
Versions: 1 2 3 4 5 6 7 8 9 10 11 12 13 14 15 16 17 18 19 20 21 22 23 24 25 26 27 28 29 30 31 32 33 34 35 36 37 38 39 40 41 42 43 44 45 46 47 48 49 50
000
NZUS59 KLOT 221509
HRRLOT

CHICAGO AREA WEATHER ROUNDUP
NATIONAL WEATHER SERVICE CHICAGO/ROMEOVILLE IL
1000 AM CDT SAT JUL 22 2017

NOTE: "FAIR" INDICATES FEW OR NO CLOUDS BELOW 12,000 FEET WITH NO
SIGNIFICANT WEATHER AND/OR OBSTRUCTIONS TO VISIBILITY.

* THESE STATIONS ARE NOT UNDER NWS QUALITY CONTROL. THEY ALSO MAY NOT
  REPORT WEATHER SUCH AS PRECIPITATION OR FOG.

ILZ005-006-012>014-019>023-221600-
NORTHEAST ILLINOIS

CITY           SKY/WX    TMP DP  RH WIND       PRES   REMARKS
OHARE          CLOUDY    75  68  78 W12       29.84R
MIDWAY         CLOUDY    77  69  76 NW7       29.83R
AURORA         CLOUDY    74  69  85 N8        29.84R
LANSING*       CLOUDY    74  66  75 SW3       29.82S
JOLIET*        CLOUDY    75  71  86 NW6       29.84R
WAUKEGAN       CLOUDY    74  70  87 CALM      29.84R
DUPAGE AIRPORT CLOUDY    73  69  87 NW10      29.85R
WHEELING       CLOUDY    75  71  87 W6        29.85R
MORRIS*        CLOUDY    74  69  85 E3        29.82R
LEWIS AIRPORT* CLOUDY    74  67  79 N13G18    29.85R
NORTHERLY ISL    N/A     75  69  81 CALM        N/A
$$

WIZ051-052-058>065-066-070>072-221600-
SOUTHEAST WISCONSIN

CITY           SKY/WX    TMP DP  RH WIND       PRES   REMARKS
MILWAUKEE      CLOUDY    77  68  73 W13       29.82R
KENOSHA*       PTSUNNY   74  68  81 W14       29.84R
RACINE*        PTSUNNY   76  70  82 W9        29.84R
WAUKESHA       CLOUDY    73  68  83 W13       29.84R
WEST BEND      CLOUDY    70  68  94 NW7       29.83S
$$

INZ001>003-010>013-019-020-221600-
NORTHWEST INDIANA

CITY           SKY/WX    TMP DP  RH WIND       PRES   REMARKS
GARY*          PTSUNNY   75  70  83 CALM      29.82R
MICHIGAN CITY* NOT AVBL
RENSSELAER*    NOT AVBL
VALPARAISO     CLOUDY    75  71  87 CALM      29.84R
$$

LMZ740>746-221600-
SOUTHERN LAKE MICHIGAN

STATION/POSITION TIME  SKY/WX   TEMP WIND        PRES    VSBY
                                AIR  DIR/SP/G
                 (UTC)          (F)  (DEG/KT/KT) (MB)    (MI)
HARRISON CRIB    1440            73   40/  6/  6   N/A
BURNHAM HARBOR   1500            74                N/A
CALUMET HARBOR   1448            76  290/  2/  3 1009.4R
BURNS HARBOR     1440            75  240/  3/  5 1010.5R
MICHIGAN CITY    1440            74  130/  2/  2   N/A
$$

ABBREVIATIONS USED IN REMARKS
   TC - TEMPERATURE IN CELSIUS
  WCI - WIND CHILL INDEX
   HX - HEAT INDEX
  VSB - VISIBILITY
$$




USA.gov is the U.S. government's official web portal to all federal, state and local government web resources and services.